RH
66 66 65 62 60 58 56 55 54 54 52 51 50 49 48 48 46 45 46 46 48 51 53 53 54 55 56 57 60 63 64 64 69 74 73 73 72 70 66 63 67 76 77 71 68 68 65 60 58 57 58 62 65 64 62 62 62 62 62 62 60 60 61
73 74 73 71 67 64 61 59 58 58 57 55 54 53 52 51 50 50 49 48 48 49 52 55 54 54 55 56 60 65 68 68 71 78 82 81 79 76 72 68 69 72 75 73 69 68 68 64 61 60 57 58 61 58 54 54 56 54 53 51 49 53 57
80 81 81 79 76 72 68 65 63 62 61 60 59 58 57 55 54 55 56 56 55 50 49 51 52 54 54 55 60 64 67 72 75 79 80 79 79 81 78 73 71 70 71 72 69 67 68 67 64 63 61 58 58 58 55 52 52 53 55 52 50 56 62
85 86 85 84 82 79 76 72 69 67 65 63 62 62 62 61 60 60 62 67 69 66 63 59 57 55 54 55 58 58 60 65 71 78 82 79 78 80 80 78 78 76 71 68 67 65 65 67 66 63 61 59 58 60 60 56 52 55 60 58 57 61 63
89 90 90 89 87 84 82 78 75 73 71 68 66 64 63 64 64 63 63 67 71 74 76 78 77 71 63 60 60 60 59 58 62 78 91 89 85 85 82 78 79 82 79 75 73 70 65 65 66 64 61 59 58 60 62 60 55 58 65 66 65 67 66
93 94 94 93 92 90 88 86 83 81 78 76 72 69 67 65 66 66 66 66 65 64 65 70 80 86 82 79 81 79 73 65 67 83 96 95 93 93 90 83 77 79 82 81 79 78 74 70 68 66 64 61 60 63 65 64 61 63 70 73 73 73 72
96 97 97 97 96 96 94 92 91 89 87 85 81 76 74 70 69 69 69 70 68 66 64 62 67 81 89 92 96 98 93 88 88 92 94 93 91 91 94 92 86 83 84 83 81 80 78 75 71 69 69 67 64 65 68 68 71 75 76 77 79 78 76
99 99 99 100 99 99 99 97 97 96 93 91 89 85 83 79 77 75 73 73 72 71 72 69 65 69 74 77 85 93 94 95 98 96 90 88 89 90 94 98 96 93 92 90 88 86 81 77 75 73 72 71 70 75 78 76 80 85 82 79 81 80 78
100 100 100 100 100 99 100 100 100 100 97 96 94 92 90 87 86 84 81 79 77 75 75 74 73 70 68 68 76 86 89 90 93 95 91 87 88 90 93 96 99 98 95 91 90 89 85 83 82 78 76 78 78 81 82 78 83 89 85 82 86 86 84
100 100 100 100 100 99 100 100 100 100 100 99 99 97 96 93 90 89 87 85 85 84 82 79 78 76 74 74 77 81 84 86 87 89 92 92 92 94 94 96 100 100 97 93 91 90 88 87 87 83 78 80 81 79 79 81 86 89 87 89 96 94 90
100 100 100 100 100 100 100 100 100 100 100 100 100 100 100 99 96 93 91 90 89 89 87 86 83 81 81 81 81 79 78 79 80 81 88 93 92 91 91 94 99 100 98 96 93 89 87 86 87 84 80 80 81 80 80 81 84 87 90 95 100 96 90
100 100 100 100 101 100 100 100 100 100 100 100 100 100 100 100 100 98 95 93 92 91 91 90 89 87 86 85 83 80 76 75 75 79 88 91 82 78 83 89 95 99 100 100 97 93 89 86 84 82 80 79 80 83 83 84 85 86 89 94 97 97 92
100 100 100 101 101 101 100 100 100 100 100 100 100 100 100 100 100 101 100 98 95 94 94 94 94 93 92 89 86 83 80 76 72 68 70 70 67 73 85 92 94 97 98 98 98 98 96 92 88 83 78 77 80 82 82 85 88 86 88 92 93 93 91
100 99 100 100 101 102 101 99 99 100 100 100 100 100 100 100 100 100 100 100 98 97 96 97 97 97 95 94 91 86 82 79 74 66 60 62 70 82 92 96 96 97 96 94 97 101 100 96 93 88 83 82 84 85 84 86 88 87 87 89 89 88 90
100 100 100 99 100 101 100 97 97 100 101 99 100 100 99 100 101 100 100 100 100 99 99 99 99 99 98 98 96 91 86 82 78 75 74 79 85 89 91 93 90 89 89 88 92 98 98 95 91 85 82 83 87 89 89 89 89 88 88 89 91 94 94
99 99 100 99 99 100 100 96 94 98 101 100 100 101 100 99 99 98 99 100 100 100 99 99 101 100 99 99 98 96 95 91 85 83 84 88 91 93 95 93 81 75 77 80 84 87 87 83 77 74 78 85 90 92 91 92 94 95 96 97 98 99 97
99 99 99 99 98 99 100 97 93 95 99 100 99 99 100 100 97 96 96 96 98 101 101 100 100 100 100 101 99 98 99 98 94 91 91 94 95 96 98 91 75 67 71 79 86 89 83 72 63 64 73 83 90 94 95 97 99 98 99 100 99 98 98
100 99 100 99 97 96 99 100 96 96 99 100 96 94 97 99 98 98 95 92 93 97 98 99 100 100 100 100 98 98 100 99 97 95 96 99 99 97 95 86 73 67 69 75 81 83 78 71 65 63 67 73 80 87 94 100 99 96 96 100 99 96 94
100 100 97 95 95 96 100 101 97 95 100 101 94 89 94 98 99 100 98 95 96 95 93 97 100 99 99 101 99 98 100 101 99 97 98 100 99 99 94 82 74 72 73 74 76 74 70 68 65 62 63 65 66 71 84 95 97 96 96 97 97 95 93
100 100 95 92 95 97 97 97 95 95 99 98 90 89 94 97 97 99 97 93 92 91 92 98 100 95 94 99 100 99 100 100 98 97 99 100 101 99 91 80 74 71 69 73 76 74 72 70 68 67 69 70 66 66 75 85 90 95 99 95 93 94 93
98 98 95 93 94 94 91 90 92 97 99 94 88 90 97 99 97 98 98 94 89 87 90 97 101 97 93 95 98 100 100 101 97 94 97 100 100 96 89 82 76 68 67 75 80 80 80 79 78 80 81 81 78 75 75 77 80 91 100 98 94 93 92
95 95 96 93 89 88 88 88 90 95 97 94 90 92 96 98 98 99 100 99 97 93 89 89 94 98 98 97 99 99 100 101 97 93 96 100 99 96 92 88 80 72 73 79 82 85 89 89 89 91 90 91 93 90 85 83 86 94 100 100 96 94 93
94 96 96 90 84 85 88 89 90 91 91 90 94 95 94 93 96 97 98 99 100 98 92 87 90 94 94 95 99 101 100 100 99 96 98 100 99 98 98 94 87 82 80 81 83 89 95 95 94 93 92 94 97 96 95 96 98 99 100 98 97 98 97
95 97 94 87 84 87 88 87 90 91 88 88 93 96 95 94 95 95 96 98 99 99 97 94 95 94 87 82 87 93 95 96 99 99 99 100 100 100 99 98 95 93 90 87 88 92 93 91 89 89 92 93 91 93 97 100 99 98 97 97 98 99 100
97 96 93 89 88 90 89 88 90 91 90 90 93 94 96 98 98 97 96 95 96 100 100 99 100 99 89 81 86 94 95 94 96 98 98 99 100 99 99 99 99 99 98 97 94 92 90 88 86 87 90 90 90 94 99 100 99 99 98 99 100 100 100
98 97 95 91 90 92 94 94 94 94 93 95 97 96 97 99 100 99 98 96 96 97 95 93 96 98 93 87 88 95 99 99 98 98 98 98 99 99 99 99 99 100 100 100 98 94 91 89 87 87 88 89 92 97 100 100 100 100 100 100 100 100 100
99 100 99 96 95 97 98 97 97 97 98 99 100 99 99 100 100 100 100 98 98 96 90 88 93 98 96 93 92 94 99 99 96 95 97 97 98 99 99 100 100 100 100 99 98 97 94 92 91 90 90 93 97 99 100 100 100 100 100 100 100 100 100
100 100 100 100 99 99 100 99 99 99 100 100 100 100 100 100 100 100 100 100 100 98 91 87 91 94 93 94 94 95 96 96 94 93 93 93 93 94 95 96 97 98 98 99 99 98 97 96 96 95 93 96 99 100 100 100 100 100 100 100 100 100 100
101 101 100 100 100 100 100 100 100 100 100 100 100 100 100 100 100 100 100 99 100 98 91 86 88 91 90 91 92 93 93 93 94 94 93 91 91 90 89 91 93 95 96 98 99 99 98 99 99 98 97 99 100 100 100 100 100 100 100 100 100 99 99
98 99 100 101 100 100 101 101 100 100 100 100 100 100 100 100 100 100 100 99 95 90 86 86 89 92 92 93 94 96 97 96 95 95 94 93 93 92 90 91 93 96 97 97 99 99 99 99 100 100 99 100 100 100 100 100 100 100 100 100 100 100 100
97 98 100 101 100 100 100 100 100 100 100 100 100 100 100 101 100 100 101 98 91 86 87 91 94 95 96 97 97 98 99 98 97 97 96 95 95 95 94 94 94 95 97 98 98 99 98 99 100 100 100 100 100 100 100 100 100 100 100 100 99 99 99
98 100 101 100 100 100 100 100 100 100 100 100 100 100 100 100 99 101 100 93 86 88 93 95 97 99 100 100 100 100 99 99 98 98 98 98 98 98 98 98 97 97 99 100 100 99 98 98 99 100 100 100 100 100 100 100 100 100 100 100 98 97 98
98 101 101 101 101 100 100 100 100 99 100 100 100 100 101 100 99 101 100 92 89 95 100 98 98 100 101 100 101 100 99 99 100 99 99 99 100 99 99 99 98 98 99 100 100 100 100 99 99 100 100 100 100 100 100 100 100 100 100 100 98 97 98
94 98 100 102 102 100 100 100 100 100 101 100 100 101 100 95 92 93 94 93 95 99 101 100 100 101 100 100 100 100 98 97 98 98 98 99 100 100 99 98 98 98 99 100 100 100 100 100 99 100 100 100 100 100 100 100 100 100 100 98 95 95 97
91 93 96 101 102 100 100 100 100 100 99 99 101 101 94 87 87 91 94 95 96 98 100 101 102 102 100 100 101 99 97 96 96 97 98 98 99 100 100 99 99 100 100 100 100 100 100 100 100 100 100 100 100 99 100 100 100 100 99 95 92 93 96
92 91 93 97 100 100 100 100 101 102 101 101 103 100 92 90 96 100 100 99 99 98 98 99 100 101 101 101 101 101 99 98 97 96 97 98 99 100 100 100 100 100 100 99 99 100 100 99 100 100 100 100 100 99 98 99 99 99 97 93 91 92 94
Wind_Speed
23 24 24 24 24 24 24 24 24 23 23 23 23 23 24 24 25 26 25 25 27 28 29 30 31 31 31 29 29 29 30 30 29 28 28 29 28 26 25 25 22 14 12 19 24 24 26 27 28 27 24 21 19 19 20 22 22 22 23 24 25 25 25
23 23 23 24 24 24 24 24 24 24 24 24 24 24 23 23 23 25 25 25 27 28 28 28 29 29 29 29 29 30 30 30 30 27 26 27 27 27 27 26 24 19 14 15 20 23 25 26 27 29 28 26 24 23 23 25 27 27 28 30 30 29 29
23 24 24 24 24 24 24 24 25 25 25 25 26 25 25 25 24 24 25 25 26 28 29 29 29 28 27 26 26 27 27 26 27 26 26 28 28 28 28 27 27 24 19 16 18 21 23 23 24 26 27 26 25 24 24 25 29 30 30 30 31 30 30
24 24 24 25 25 25 25 25 25 25 26 26 26 27 26 26 26 26 26 26 25 25 26 27 28 28 28 27 27 28 28 27 26 27 29 31 31 30 29 28 27 27 24 21 19 20 23 23 23 24 25 24 24 24 25 25 28 30 30 30 30 31 30
25 24 25 25 25 25 25 25 24 25 26 26 26 27 27 27 27 28 29 29 28 27 26 25 25 26 26 27 29 30 31 31 31 31 30 30 30 30 30 29 27 27 26 23 20 20 21 21 22 23 24 24 25 24 24 24 27 30 30 29 31 32 32
25 25 25 25 25 26 25 25 25 26 26 26 26 27 27 27 28 28 29 30 30 31 31 30 28 27 26 27 28 28 30 31 32 32 28 25 23 24 26 28 28 28 27 26 24 23 21 19 20 22 23 24 24 24 24 25 27 30 30 29 30 32 32
26 26 26 26 26 26 26 26 26 27 27 27 28 28 28 28 28 28 28 28 29 30 31 33 33 31 28 28 27 26 26 25 25 26 25 23 21 22 24 26 27 27 26 25 25 23 21 20 21 23 23 23 24 25 26 26 26 27 29 29 30 32 33
28 27 27 27 27 27 27 27 27 28 28 28 28 29 29 29 29 29 29 29 29 30 30 31 34 35 34 34 32 29 27 24 21 21 23 23 21 21 23 23 22 24 23 22 21 21 21 21 21 22 23 23 22 22 23 26 25 25 27 29 30 31 32
29 29 29 28 28 29 28 29 30 30 28 28 29 30 30 29 29 28 29 29 29 30 31 31 32 34 36 38 36 33 30 28 25 23 24 24 23 22 22 22 19 19 21 21 20 19 20 18 18 20 21 20 21 23 25 26 25 24 27 29 27 29 29
29 30 30 30 31 31 30 30 31 31 28 27 29 29 29 30 31 30 29 29 29 29 30 32 33 34 36 37 37 36 33 31 29 28 27 27 26 25 23 22 20 19 21 21 19 19 19 16 16 20 22 21 23 27 27 24 21 23 27 24 19 21 26
29 30 30 32 32 32 32 32 31 29 28 28 28 28 29 30 31 31 30 30 30 30 30 31 32 33 34 36 37 38 37 35 34 33 31 30 30 29 27 26 24 22 22 21 19 19 19 16 16 21 24 24 24 26 27 26 24 23 22 17 12 13 19
29 30 31 31 31 32 33 33 31 29 28 28 28 27 28 29 31 33 34 33 32 32 32 30 30 31 32 34 36 38 38 37 36 35 33 32 33 33 31 31 29 27 25 23 20 19 19 20 22 23 24 24 24 24 25 25 24 24 22 18 15 15 18
29 30 30 29 29 31 32 32 31 29 27 27 27 26 26 28 30 33 36 37 36 35 34 32 31 30 30 32 33 34 36 37 38 38 37 36 36 35 34 32 31 30 29 28 26 22 19 19 20 19 19 21 22 22 21 21 22 24 23 21 20 22 25
28 29 29 27 27 29 30 31 31 29 27 27 26 26 26 27 29 32 35 37 37 38 37 35 32 31 31 30 30 31 33 35 37 37 37 36 35 34 33 31 29 27 28 29 28 25 22 22 18 15 14 15 15 14 14 16 21 24 23 23 23 24 23
27 28 28 28 28 28 30 32 32 29 28 28 26 25 24 25 26 28 31 34 35 36 37 36 33 32 32 30 29 29 31 32 34 35 34 33 32 31 31 29 26 24 23 24 25 24 26 27 24 21 20 19 17 16 13 13 16 19 20 21 21 18 17
27 27 28 29 29 28 29 33 33 30 29 28 26 25 24 24 23 23 25 28 31 33 35 35 33 32 32 31 30 29 27 28 31 32 32 31 30 29 28 27 25 22 21 21 21 22 23 24 24 23 23 22 21 20 18 14 13 15 16 15 13 13 15
27 27 28 30 30 29 30 33 34 31 29 28 25 24 24 23 22 22 21 22 25 28 31 32 32 32 32 31 31 30 27 25 26 29 30 29 28 27 26 26 25 22 19 18 18 19 20 19 19 20 20 20 20 20 20 16 15 16 16 13 9 8 12
27 28 28 28 30 31 31 32 33 31 29 28 26 23 22 22 21 21 20 21 22 22 24 28 30 30 31 32 32 31 29 26 25 26 26 26 27 26 26 27 25 22 19 18 17 18 18 18 18 18 19 19 20 20 20 19 19 19 18 15 10 8 10
26 29 30 30 31 32 30 29 31 31 29 27 25 23 20 20 20 20 19 19 19 18 21 24 25 24 26 29 31 30 28 27 26 25 25 24 24 24 26 27 25 21 20 19 17 17 18 18 19 20 20 21 22 22 23 23 23 21 19 18 16 14 10
27 29 31 32 31 30 28 26 29 31 27 21 19 17 13 13 16 17 18 18 16 16 19 21 21 20 21 23 26 28 27 26 25 24 24 24 23 24 26 27 25 22 21 19 18 18 18 19 20 21 21 22 23 24 25 26 26 25 23 22 20 18 14
28 28 29 30 28 26 26 26 28 29 24 20 21 20 15 13 14 14 15 17 16 15 18 19 18 20 20 20 21 24 25 25 23 22 23 25 25 27 28 26 23 23 21 19 19 19 20 20 21 22 22 23 24 25 26 27 27 28 27 25 22 20 17
27 26 26 25 24 23 25 27 28 28 25 24 25 23 20 18 18 18 17 14 15 15 16 18 18 17 16 16 17 19 22 24 22 21 22 25 25 26 26 24 23 22 20 19 20 20 21 21 21 22 23 23 24 25 25 25 26 27 27 26 24 22 19
26 24 22 22 22 23 25 27 27 26 24 26 27 25 23 21 19 19 20 17 13 14 16 19 18 15 11 10 11 12 15 19 21 22 23 23 23 24 24 24 24 23 20 20 21 20 20 21 21 21 21 22 24 25 24 24 24 24 25 25 23 22 21
23 20 18 19 21 23 24 26 26 24 23 25 26 25 24 23 22 19 19 19 17 13 13 15 16 14 12 12 12 12 12 13 16 20 23 23 24 24 23 23 24 23 22 21 21 20 20 21 21 21 21 22 23 23 22 22 21 21 23 24 23 21 20
20 19 17 17 19 21 23 24 24 23 23 25 26 25 24 23 22 21 19 19 18 16 14 13 11 10 11 11 12 12 12 12 13 14 17 21 23 24 24 24 24 23 22 20 20 21 21 21 22 22 22 22 21 20 20 20 20 21 22 22 21 20 17
19 17 15 15 18 19 20 21 22 21 23 26 27 27 25 24 23 21 19 18 17 16 16 15 12 10 10 11 12 12 10 8 9 8 9 12 15 19 22 24 25 24 22 22 22 22 22 23 24 23 22 20 19 19 22 23 23 22 21 21 20 18 15
19 16 12 14 17 19 19 20 20 20 23 27 28 27 26 24 23 22 21 19 17 16 15 15 12 11 10 9 11 11 8 5 6 6 5 5 7 9 12 14 17 18 18 20 21 22 23 25 24 23 22 21 20 21 24 25 24 23 21 21 20 17 13
18 14 12 13 16 17 18 18 19 20 24 26 26 27 26 24 22 23 22 20 18 16 14 12 10 8 7 7 7 6 4 3 4 4 5 5 5 6 8 9 11 12 13 14 14 16 19 22 22 23 23 23 22 23 25 25 24 23 22 21 19 16 13
17 14 14 16 15 15 16 17 19 22 24 24 24 25 24 22 20 21 21 19 17 14 11 10 9 8 7 8 8 7 7 6 6 5 4 5 5 6 7 7 9 10 11 12 11 12 14 17 20 23 23 23 23 23 24 25 23 22 22 20 18 16 15
15 14 15 17 16 16 16 17 20 23 24 23 23 23 22 20 18 18 19 17 14 9 7 9 11 10 10 10 9 9 9 9 8 7 7 6 7 8 8 7 6 7 9 11 12 13 14 14 17 23 23 23 23 22 23 24 24 22 22 21 18 15 15
13 14 15 17 17 18 17 18 20 22 22 22 22 22 22 19 16 16 17 14 9 7 10 12 12 11 11 11 11 11 11 10 10 10 9 9 8 8 10 10 10 9 8 9 11 13 16 16 15 21 25 24 24 23 23 22 21 21 22 22 19 17 16
14 16 17 17 17 19 20 21 21 21 20 20 21 21 21 17 12 13 15 10 7 11 14 14 12 11 12 13 13 13 12 12 12 12 11 11 11 10 11 12 12 12 10 9 9 10 14 16 16 19 25 27 25 24 23 21 21 21 21 19 18 17 17
15 16 18 18 18 19 21 22 21 20 19 20 20 20 19 13 9 12 15 13 13 15 15 14 13 13 13 14 14 14 14 13 14 14 13 13 12 12 11 12 12 12 11 9 9 9 10 13 15 17 23 27 27 26 25 23 22 21 20 18 17 17 17
17 18 19 19 19 21 23 23 21 20 19 20 21 20 16 9 5 9 13 16 17 16 14 14 15 14 15 15 15 15 15 15 15 15 14 14 13 13 12 12 12 12 12 11 10 9 8 8 11 13 19 25 26 25 24 23 22 21 20 19 19 18 18
21 21 20 19 20 23 24 23 22 20 19 20 22 19 13 9 10 13 15 17 19 18 15 14 14 14 15 16 16 16 16 16 16 16 15 15 15 14 13 13 13 12 12 11 11 10 8 6 6 7 14 22 25 24 23 22 22 23 22 21 21 21 20
20 20 19 18 19 22 24 23 21 20 19 20 21 19 17 17 17 17 16 16 18 19 17 15 15 15 16 16 17 18 18 17 17 17 16 15 15 14 14 14 13 12 12 11 10 10 9 6 5 3 6 15 21 23 24 23 23 23 23 23 24 23 23
Wind_Direction
289 287 286 284 282 280 278 276 275 272 270 268 266 263 262 261 262 263 264 264 264 263 261 260 260 261 261 261 261 259 257 257 259 259 258 260 264 264 259 254 251 250 258 257 253 256 258 259 265 269 268 267 263 261 267 271 272 274 277 280 283 284 282
290 288 286 284 282 280 278 276 273 272 269 267 267 265 264 262 261 261 262 261 261 261 261 260 259 258 256 254 254 253 251 250 251 251 253 254 258 263 260 256 254 252 254 254 249 247 250 252 257 262 264 263 261 261 265 270 272 273 275 277 281 283 282
290 288 286 284 281 279 277 275 273 271 267 265 264 262 261 260 259 260 260 259 258 258 258 260 261 260 258 255 254 254 254 253 251 249 250 251 253 257 258 256 255 254 254 256 251 245 245 246 249 254 259 262 263 261 260 265 270 273 274 275 277 279 278
289 288 286 284 281 279 276 274 272 269 266 264 262 260 259 257 255 256 257 258 260 259 258 258 259 259 259 259 259 259 258 258 256 251 248 246 245 246 251 255 256 254 253 255 254 247 244 245 246 251 256 261 264 263 258 259 267 271 272 273 273 273 274
289 287 285 283 281 279 277 275 272 270 266 263 261 259 257 255 254 253 253 255 258 261 262 262 261 260 258 257 257 257 255 253 252 251 249 245 242 240 243 248 254 255 253 254 255 251 247 245 245 250 255 258 260 261 258 258 264 267 268 268 269 269 269
291 288 285 282 281 279 277 274 272 269 267 265 262 260 257 255 253 252 251 251 253 255 258 259 260 260 256 253 254 254 251 247 245 247 251 252 253 251 246 242 245 251 253 254 257 256 252 247 246 249 252 253 255 257 256 257 261 263 264 263 264 265 266
291 289 287 284 281 279 276 274 271 268 266 264 261 259 257 255 254 253 252 251 251 251 251 251 253 255 255 254 255 257 256 251 246 245 250 257 264 271 267 252 241 241 247 249 252 254 254 251 250 250 251 252 254 254 253 252 252 255 257 258 259 261 264
292 290 288 284 281 278 276 273 269 266 264 262 259 257 256 255 253 253 253 253 253 252 250 249 248 250 252 254 255 258 260 262 261 256 256 260 265 272 278 271 251 240 243 247 250 253 254 253 251 248 249 250 247 243 241 241 240 243 251 254 255 258 261
295 291 288 286 285 283 279 273 269 267 264 261 259 255 253 252 251 251 251 252 253 252 250 249 248 247 248 250 252 254 254 257 261 260 259 262 266 268 274 279 272 255 247 246 248 251 250 250 248 245 245 240 232 230 235 239 238 238 246 251 253 257 259
298 294 291 292 291 288 283 278 274 271 265 260 258 255 252 249 248 247 248 248 249 249 248 248 248 248 247 246 249 251 251 252 254 256 257 257 261 264 266 271 274 270 257 245 239 243 245 245 244 243 240 235 232 234 238 240 236 236 243 246 248 256 259
300 297 297 298 297 293 290 288 284 277 269 264 261 257 254 250 246 245 244 244 244 245 246 245 245 247 247 246 247 248 249 248 249 252 254 255 258 260 262 261 263 267 266 253 241 240 242 241 243 244 239 236 235 234 235 237 234 234 238 235 232 250 257
304 303 302 301 300 298 297 295 292 284 276 271 266 261 257 253 250 247 244 243 244 244 245 244 244 244 245 246 245 245 245 244 243 245 249 253 257 259 258 256 255 257 262 260 253 248 243 240 241 242 237 233 234 233 232 233 231 231 232 230 228 239 248
306 304 303 301 299 298 297 296 296 290 282 279 274 269 262 256 252 250 248 246 245 246 246 244 243 243 244 245 244 242 241 240 240 241 245 250 254 255 254 253 253 254 255 257 258 256 254 247 239 236 235 234 235 234 228 224 227 230 230 228 231 239 245
306 304 303 301 299 297 296 297 297 292 286 284 281 277 271 263 254 250 250 249 248 249 248 245 242 241 242 243 243 241 239 237 237 239 243 247 248 248 249 250 252 254 254 255 256 256 258 258 252 248 248 246 246 243 232 228 230 229 227 230 237 244 248
305 305 305 304 302 300 298 300 300 294 288 287 286 283 281 276 265 254 250 250 250 250 250 249 243 241 242 242 240 239 237 235 235 236 238 241 242 243 245 248 252 254 254 255 256 257 258 260 262 264 263 264 268 269 266 258 246 238 235 238 243 249 251
306 305 305 306 306 302 300 304 305 300 294 291 288 286 284 282 278 269 258 255 253 252 253 252 246 242 242 242 240 239 235 233 234 234 235 237 238 240 242 245 250 255 255 255 256 258 259 260 263 265 264 265 268 269 270 270 259 247 241 235 235 242 245
306 306 306 306 307 304 301 304 309 308 303 299 295 290 286 283 280 274 268 267 266 261 258 255 250 246 243 242 242 241 236 232 233 234 233 233 234 237 239 242 249 255 257 255 253 254 257 258 260 262 262 262 261 262 263 258 243 234 228 222 221 229 236
306 306 306 305 306 307 304 303 309 313 309 303 299 293 287 284 280 272 267 269 271 270 268 263 258 253 248 243 244 243 237 232 233 235 235 231 228 231 236 241 247 252 255 256 253 252 254 256 257 258 259 260 258 258 257 250 239 231 221 215 219 227 231
306 307 309 309 309 311 311 309 314 317 312 306 304 299 288 280 275 270 267 268 270 272 275 270 261 257 254 248 247 246 238 233 232 235 237 232 225 225 232 239 242 245 250 252 253 255 257 258 260 260 259 260 259 257 253 249 248 241 224 214 218 222 222
307 308 311 314 315 318 319 318 320 321 320 325 332 329 314 291 280 271 265 268 273 278 279 271 259 256 257 252 248 244 239 235 234 233 236 234 225 224 232 239 241 243 247 250 253 256 259 260 262 263 261 260 260 257 252 248 249 245 233 224 222 219 216
309 309 311 315 318 322 325 327 328 330 338 351 356 356 355 342 325 308 284 268 264 272 280 278 267 262 262 258 251 244 239 237 236 233 233 232 229 231 236 240 243 245 246 247 249 251 254 256 258 259 259 258 257 255 253 248 246 242 236 231 230 226 222
310 309 310 316 323 326 330 333 337 342 353 358 355 353 355 353 347 342 330 298 265 262 276 282 281 278 273 265 258 250 242 237 236 234 233 232 232 234 237 239 243 246 244 242 243 246 247 249 251 252 253 254 252 250 250 248 245 242 236 232 233 234 231
310 309 311 321 329 331 334 337 340 345 353 354 351 348 349 348 345 343 342 331 300 277 277 281 285 293 294 282 274 267 254 243 235 231 231 232 233 235 236 238 243 245 242 240 241 241 241 243 246 247 247 248 247 247 246 245 244 238 228 225 229 234 237
311 311 318 327 329 331 336 338 339 343 348 349 347 345 344 344 343 340 339 338 330 315 298 287 284 288 292 290 289 289 281 265 247 234 228 228 230 232 234 237 240 241 239 239 238 236 238 242 244 243 243 243 245 246 244 239 234 224 217 219 226 230 232
311 313 320 328 329 330 334 336 335 339 346 347 345 344 342 341 340 339 336 335 336 338 334 319 306 299 294 290 290 291 283 269 261 250 238 231 229 229 231 233 235 236 234 234 235 235 236 240 241 240 240 241 242 238 228 216 209 207 209 214 218 220 220
307 310 319 329 330 328 331 333 332 336 343 345 343 342 341 339 338 338 335 331 330 333 334 330 326 321 313 299 296 302 297 269 261 262 250 237 231 230 230 230 231 232 230 229 232 234 235 237 238 238 237 236 233 222 210 202 199 201 203 205 205 206 206
301 307 323 335 331 327 329 331 332 336 342 342 341 340 339 337 337 336 334 330 325 325 328 328 323 320 317 302 290 294 300 292 285 284 273 253 238 235 235 234 234 235 235 235 234 234 236 238 235 230 226 222 217 210 205 205 205 201 196 195 197 194 194
300 313 336 340 330 327 329 330 331 337 338 336 336 336 335 335 336 335 333 327 321 318 322 329 330 329 334 335 325 320 329 342 338 321 304 294 281 264 256 253 251 250 252 255 252 246 245 239 226 216 213 209 205 204 204 205 205 200 192 189 188 183 181
311 328 344 344 335 330 330 328 329 331 330 330 331 332 332 332 332 333 332 326 321 319 326 344 358 8 10 7 8 14 15 11 12 7 347 336 329 311 292 279 272 267 264 267 266 261 257 240 215 203 201 198 195 199 202 200 198 195 190 185 184 182 182
325 337 346 344 339 336 331 326 325 327 328 329 330 331 332 332 331 333 336 332 329 335 356 10 16 21 21 18 19 20 15 10 10 6 358 356 350 337 331 328 317 298 281 271 264 260 263 252 217 197 193 192 190 193 196 194 194 194 189 182 181 181 181
340 345 347 344 341 341 337 331 330 330 330 331 332 334 335 333 331 341 348 345 348 18 30 27 24 23 21 22 22 19 14 12 12 8 3 2 360 354 353 351 345 335 319 297 278 264 263 263 235 201 191 191 191 189 189 190 190 190 187 183 182 180 177
350 349 348 346 345 345 343 340 338 336 336 337 338 339 339 336 340 359 6 9 30 40 32 25 21 19 17 18 18 15 12 11 9 6 2 359 356 354 356 354 347 341 334 322 308 284 265 265 253 216 195 190 190 187 185 184 185 185 182 180 180 179 178
353 350 348 347 347 347 346 344 343 343 345 347 348 349 349 351 6 21 23 32 42 38 27 20 18 16 14 14 13 10 10 10 6 3 1 358 354 352 353 350 344 341 338 332 324 307 278 268 264 235 202 189 186 185 182 181 183 183 179 174 171 171 173
348 350 350 348 347 348 348 348 349 351 354 357 359 359 358 359 22 34 34 39 41 33 21 17 19 16 12 10 8 5 6 4 1 359 356 353 350 349 349 347 344 344 345 344 337 323 301 282 272 243 206 188 182 182 182 181 181 179 175 172 169 166 168
341 346 350 350 348 348 349 351 354 358 3 8 9 9 10 19 26 24 23 28 30 26 17 14 15 13 10 8 5 5 6 3 359 356 352 348 347 345 342 344 347 348 349 347 344 337 326 307 290 252 207 189 182 179 179 179 180 179 177 173 169 165 165
338 342 348 352 353 352 351 354 359 2 9 15 16 20 31 37 30 21 15 16 19 20 17 13 9 6 6 6 4 5 6 4 1 357 351 348 347 345 342 343 346 349 352 351 349 347 342 326 313 288 208 192 186 182 182 182 182 181 178 174 171 168 166